| time (UTC) | temp F | wind direction | speed knots | gust knots | rain 1hr in | rain 24hr in | rain mn in | humidity % | barometer mb |
| 20260904015847 | 72 | 225 | 1.7 | 4.3 | 0.00 | 0.27 | 0.01 | 93 | 1014.0 |
| 20260904015337 | 72 | 184 | 1.7 | 2.6 | 0.00 | 0.27 | 0.01 | 94 | 1013.9 |
| 20260904014839 | 72 | 268 | 0.9 | 7.0 | 0.00 | 0.27 | 0.01 | 93 | 1013.9 |
| 20260904014348 | 72 | 254 | 2.6 | 7.0 | 0.00 | 0.27 | 0.01 | 93 | 1013.9 |
| 20260904013842 | 72 | 230 | 1.7 | 9.6 | 0.00 | 0.27 | 0.01 | 93 | 1013.9 |
| 20260904013332 | 72 | 220 | 2.6 | 9.6 | 0.00 | 0.27 | 0.01 | 93 | 1013.8 |
| 20260904012909 | 72 | 211 | 1.7 | 10.4 | 0.00 | 0.27 | 0.01 | 94 | 1013.7 |
| 20260904012330 | 72 | 234 | 4.3 | 10.4 | 0.00 | 0.27 | 0.01 | 94 | 1013.7 |
| 20260904011836 | 72 | 221 | 4.3 | 9.6 | 0.00 | 0.27 | 0.01 | 93 | 1013.7 |
| 20260904011400 | 72 | 252 | 4.3 | 10.4 | 0.00 | 0.27 | 0.01 | 93 | 1013.7 |
| 20260904010837 | 72 | 267 | 5.2 | 10.4 | 0.00 | 0.27 | 0.01 | 93 | 1013.8 |
| 20260904010400 | 73 | 215 | 2.6 | 8.7 | 0.00 | 0.27 | 0.01 | 93 | 1013.7 |
| 20260904005837 | 73 | 226 | 2.6 | 8.7 | 0.00 | 0.32 | 0.01 | 93 | 1013.6 |
| 20260904005337 | 73 | 245 | 3.5 | 8.7 | 0.00 | 0.32 | 0.01 | 93 | 1013.4 |
| 20260904004839 | 73 | 235 | 3.5 | 8.7 | 0.00 | 0.32 | 0.01 | 93 | 1013.4 |
| 20260904004338 | 73 | 259 | 3.5 | 8.7 | 0.00 | 0.32 | 0.01 | 93 | 1013.3 |
| 20260904003843 | 73 | 230 | 3.5 | 9.6 | 0.00 | 0.32 | 0.01 | 93 | 1013.4 |
| 20260904003406 | 73 | 271 | 1.7 | 6.1 | 0.01 | 0.32 | 0.01 | 93 | 1013.3 |
| 20260904002854 | 73 | 42 | 2.6 | 8.7 | 0.01 | 0.32 | 0.01 | 93 | 1013.1 |
| 20260904002352 | 73 | 209 | 3.5 | 8.7 | 0.01 | 0.32 | 0.01 | 93 | 1012.9 |
| 20260904001903 | 74 | 157 | 1.7 | 7.8 | 0.01 | 0.32 | 0.01 | 93 | 1012.9 |
| 20260904001343 | 74 | 227 | 2.6 | 7.8 | 0.01 | 0.32 | 0.01 | 93 | 1013.1 |
| 20260904000910 | 74 | 260 | 2.6 | 7.8 | 0.01 | 0.32 | 0.01 | 92 | 1013.1 |
| 20260904000350 | 74 | 222 | 0.9 | 4.3 | 0.01 | 0.32 | 0.01 | 92 | 1013.1 |
| 20260903235843 | 74 | 199 | 1.7 | 4.3 | 0.01 | 0.75 | 0.01 | 92 | 1013.3 |
| 20260903235340 | 74 | 233 | 1.7 | 3.5 | 0.01 | 0.75 | 0.01 | 92 | 1013.4 |
| 20260903234850 | 74 | 268 | 1.7 | 5.2 | 0.01 | 0.75 | 0.01 | 92 | 1013.4 |
| 20260903234333 | 74 | 231 | 2.6 | 5.2 | 0.01 | 0.75 | 0.01 | 91 | 1013.5 |
| 20260903233838 | 74 | 192 | 0.9 | 2.6 | 0.01 | 0.75 | 0.01 | 91 | 1013.7 |
| 20260903233349 | 74 | 263 | 0.9 | 6.1 | 0.00 | 0.74 | 0.00 | 91 | 1013.8 |
| 20260903232849 | 74 | 243 | 1.7 | 6.1 | 0.00 | 0.74 | 0.00 | 91 | 1013.8 |
| 20260903232331 | 74 | 171 | 1.7 | 5.2 | 0.00 | 0.74 | 0.00 | 91 | 1013.8 |
| 20260903231900 | 74 | 221 | 0.9 | 4.3 | 0.00 | 0.74 | 0.00 | 91 | 1013.6 |
| 20260903231338 | 74 | 200 | 1.7 | 4.3 | 0.00 | 0.74 | 0.00 | 91 | 1013.6 |
| 20260903230847 | 74 | 199 | 1.7 | 4.3 | 0.00 | 0.74 | 0.00 | 90 | 1013.5 |
| 20260903230346 | 75 | 244 | 0.9 | 6.1 | 0.00 | 0.74 | 0.00 | 90 | 1013.8 |
| 20260903225847 | 75 | 254 | 0.9 | 6.1 | 0.00 | 0.74 | 0.00 | 90 | 1013.8 |
| 20260903225341 | 75 | 232 | 1.7 | 3.5 | 0.00 | 0.74 | 0.00 | 90 | 1013.8 |
| 20260903224848 | 75 | 336 | 1.7 | 3.5 | 0.00 | 0.74 | 0.00 | 90 | 1013.8 |
| 20260903224332 | 75 | 222 | 1.7 | 4.3 | 0.00 | 0.74 | 0.00 | 90 | 1013.8 |
| 20260903223840 | 75 | 181 | 2.6 | 6.1 | 0.00 | 0.74 | 0.00 | 90 | 1013.8 |
| 20260903223337 | 75 | 224 | 2.6 | 6.1 | 0.00 | 0.74 | 0.00 | 90 | 1013.9 |
| 20260903222845 | 75 | 215 | 1.7 | 5.2 | 0.00 | 0.74 | 0.00 | 90 | 1013.8 |
| 20260903222343 | 75 | 238 | 0.9 | 3.5 | 0.00 | 0.74 | 0.00 | 90 | 1014.0 |
| 20260903221839 | 75 | 246 | 1.7 | 4.3 | 0.00 | 0.74 | 0.00 | 90 | 1014.1 |
| 20260903221336 | 75 | 227 | 1.7 | 7.8 | 0.00 | 0.74 | 0.00 | 90 | 1013.8 |
| 20260903220854 | 75 | 223 | 2.6 | 7.8 | 0.00 | 0.74 | 0.00 | 90 | 1013.6 |
| 20260903220332 | 75 | 219 | 1.7 | 3.5 | 0.00 | 0.74 | 0.00 | 90 | 1013.5 |
| 20260903215837 | 75 | 222 | 1.7 | 3.5 | 0.00 | 0.74 | 0.00 | 90 | 1013.4 |
| 20260903215342 | 75 | 309 | 0.9 | 3.5 | 0.00 | 0.74 | 0.00 | 90 | 1013.4 |
| 20260903214846 | 75 | 334 | 0.9 | 3.5 | 0.00 | 0.74 | 0.00 | 90 | 1013.4 |
| 20260903214347 | 75 | 187 | 0.9 | 3.5 | 0.00 | 0.74 | 0.00 | 90 | 1013.2 |
| 20260903213848 | 75 | 187 | 1.7 | 3.5 | 0.00 | 0.74 | 0.00 | 90 | 1012.9 |
| 20260903213343 | 75 | 187 | 1.7 | 3.5 | 0.00 | 0.74 | 0.00 | 90 | 1012.9 |
| 20260903212836 | 75 | 187 | 1.7 | 5.2 | 0.00 | 0.74 | 0.00 | 89 | 1013.0 |
| 20260903212336 | 75 | 265 | 1.7 | 5.2 | 0.00 | 0.74 | 0.00 | 90 | 1013.1 |
| 20260903211834 | 75 | 236 | 0.9 | 5.2 | 0.00 | 0.74 | 0.00 | 89 | 1013.1 |
| 20260903211332 | 76 | 240 | 1.7 | 6.1 | 0.00 | 0.74 | 0.00 | 90 | 1013.3 |
| 20260903210838 | 75 | 242 | 2.6 | 6.1 | 0.00 | 0.74 | 0.00 | 89 | 1013.4 |
| 20260903210343 | 76 | 226 | 1.7 | 5.2 | 0.00 | 0.74 | 0.00 | 90 | 1013.4 |
| 20260903205852 | 76 | 227 | 1.7 | 4.3 | 0.00 | 0.74 | 0.00 | 89 | 1013.4 |
| 20260903205352 | 76 | 230 | 1.7 | 4.3 | 0.00 | 0.74 | 0.00 | 89 | 1013.3 |
| 20260903204911 | 76 | 210 | 1.7 | 4.3 | 0.00 | 0.74 | 0.00 | 89 | 1013.4 |
| 20260903204355 | 76 | 112 | 1.7 | 3.5 | 0.00 | 0.74 | 0.00 | 88 | 1013.5 |
| 20260903203833 | 76 | 42 | 1.7 | 3.5 | 0.00 | 0.74 | 0.00 | 88 | 1013.7 |
| 20260903203341 | 76 | 227 | 0.9 | 4.3 | 0.00 | 0.74 | 0.00 | 88 | 1013.8 |
| 20260903202844 | 76 | 209 | 1.7 | 6.1 | 0.00 | 0.74 | 0.00 | 89 | 1013.8 |
| 20260903202411 | 76 | 196 | 1.7 | 7.0 | 0.00 | 0.74 | 0.00 | 88 | 1013.8 |
| 20260903201833 | 76 | 292 | 1.7 | 7.0 | 0.00 | 0.74 | 0.00 | 88 | 1013.8 |
| 20260903201331 | 76 | 200 | 1.7 | 6.1 | 0.00 | 0.74 | 0.00 | 88 | 1013.9 |
| 20260903200831 | 76 | 190 | 2.6 | 5.2 | 0.00 | 0.74 | 0.00 | 87 | 1014.0 |
| 20260903200338 | 76 | 213 | 1.7 | 5.2 | 0.00 | 0.74 | 0.00 | 88 | 1013.9 |
| 20260903195844 | 76 | 192 | 1.7 | 5.2 | 0.00 | 0.74 | 0.00 | 88 | 1014.2 |
| 20260903195348 | 75 | 205 | 1.7 | 6.1 | 0.00 | 0.74 | 0.00 | 88 | 1014.2 |
| 20260903194845 | 75 | 202 | 1.7 | 5.2 | 0.00 | 0.74 | 0.00 | 87 | 1014.1 |
| 20260903194339 | 75 | 202 | 2.6 | 7.8 | 0.00 | 0.74 | 0.00 | 86 | 1014.1 |
| 20260903193836 | 75 | 205 | 3.5 | 7.8 | 0.00 | 0.74 | 0.00 | 87 | 1014.0 |
| 20260903193337 | 75 | 220 | 3.5 | 8.7 | 0.00 | 0.74 | 0.00 | 86 | 1014.0 |
| 20260903192842 | 76 | 252 | 3.5 | 8.7 | 0.00 | 0.74 | 0.00 | 86 | 1014.1 |
| 20260903192350 | 76 | 150 | 1.7 | 6.1 | 0.00 | 0.74 | 0.00 | 86 | 1014.3 |
| 20260903191855 | 76 | 269 | 2.6 | 6.1 | 0.00 | 0.74 | 0.00 | 86 | 1014.2 |
| 20260903191343 | 76 | 160 | 2.6 | 5.2 | 0.00 | 0.74 | 0.00 | 85 | 1014.4 |
| 20260903190844 | 76 | 261 | 1.7 | 5.2 | 0.00 | 0.74 | 0.00 | 85 | 1014.3 |
| 20260903190357 | 77 | 239 | 2.6 | 8.7 | 0.00 | 0.74 | 0.00 | 84 | 1014.2 |
| 20260903185850 | 77 | 186 | 2.6 | 8.7 | 0.00 | 0.74 | 0.00 | 84 | 1014.0 |
| 20260903185344 | 77 | 215 | 2.6 | 9.6 | 0.00 | 0.74 | 0.00 | 83 | 1014.1 |
| 20260903184842 | 77 | 234 | 3.5 | 9.6 | 0.00 | 0.74 | 0.00 | 83 | 1014.1 |
| 20260903184410 | 77 | 155 | 1.7 | 5.2 | 0.00 | 0.74 | 0.00 | 84 | 1014.2 |
| 20260903183830 | 78 | 240 | 2.6 | 11.3 | 0.00 | 0.74 | 0.00 | 82 | 1014.1 |
| 20260903183332 | 78 | 196 | 5.2 | 11.3 | 0.00 | 0.74 | 0.00 | 81 | 1014.2 |
| 20260903182912 | 78 | 238 | 2.6 | 7.0 | 0.00 | 0.74 | 0.00 | 81 | 1014.2 |
| 20260903182352 | 78 | 212 | 2.6 | 7.0 | 0.00 | 0.74 | 0.00 | 80 | 1014.3 |
| 20260903181848 | 78 | 320 | 1.7 | 7.0 | 0.00 | 0.74 | 0.00 | 82 | 1014.3 |
| 20260903181344 | 77 | 182 | 0.9 | 3.5 | 0.00 | 0.74 | 0.00 | 83 | 1014.2 |
| 20260903180849 | 77 | 209 | 1.7 | 5.2 | 0.00 | 0.74 | 0.00 | 82 | 1014.3 |
| 20260903180359 | 77 | 304 | 1.7 | 5.2 | 0.00 | 0.74 | 0.00 | 82 | 1014.3 |
| 20260903175839 | 78 | 245 | 1.7 | 6.1 | 0.00 | 0.75 | 0.00 | 82 | 1014.3 |
| 20260903175338 | 78 | 38 | 1.7 | 6.1 | 0.00 | 0.75 | 0.00 | 82 | 1014.2 |
| 20260903174847 | 78 | 198 | 0.9 | 6.1 | 0.00 | 0.75 | 0.00 | 83 | 1014.1 |
| 20260903174337 | 78 | 251 | 1.7 | 3.5 | 0.00 | 0.75 | 0.00 | 84 | 1014.1 |
| 20260903173832 | 77 | 144 | 1.7 | 3.5 | 0.00 | 0.75 | 0.00 | 85 | 1014.3 |
| 20260903173339 | 77 | 253 | 1.7 | 5.2 | 0.00 | 0.75 | 0.00 | 84 | 1014.3 |
| 20260903172856 | 77 | 235 | 1.7 | 8.7 | 0.00 | 0.75 | 0.00 | 83 | 1014.4 |
| 20260903172353 | 78 | 202 | 3.5 | 8.7 | 0.00 | 0.75 | 0.00 | 83 | 1014.3 |
| 20260903171840 | 77 | 241 | 3.5 | 7.8 | 0.00 | 0.75 | 0.00 | 84 | 1014.4 |
| 20260903171334 | 77 | 190 | 1.7 | 7.8 | 0.00 | 0.75 | 0.00 | 84 | 1014.3 |
| 20260903170839 | 77 | 233 | 4.3 | 7.8 | 0.00 | 0.75 | 0.00 | 87 | 1014.3 |
| 20260903170340 | 76 | 250 | 2.6 | 7.8 | 0.00 | 0.75 | 0.00 | 87 | 1014.3 |
| 20260903165834 | 76 | 240 | 1.7 | 6.1 | 0.00 | 0.80 | 0.00 | 87 | 1014.5 |
| 20260903165334 | 76 | 230 | 2.6 | 6.1 | 0.00 | 0.80 | 0.00 | 88 | 1014.5 |
| 20260903164838 | 76 | 229 | 1.7 | 6.1 | 0.00 | 0.80 | 0.00 | 87 | 1014.5 |
| 20260903164403 | 76 | 209 | 2.6 | 6.1 | 0.00 | 0.80 | 0.00 | 87 | 1014.6 |
| 20260903163831 | 76 | 236 | 1.7 | 6.1 | 0.00 | 0.80 | 0.00 | 89 | 1014.5 |
| 20260903163355 | 75 | 205 | 0.9 | 4.3 | 0.00 | 0.80 | 0.00 | 88 | 1014.5 |
| 20260903162900 | 75 | 244 | 2.6 | 7.8 | 0.00 | 0.80 | 0.00 | 89 | 1014.6 |
| 20260903162341 | 74 | 231 | 2.6 | 7.8 | 0.00 | 0.80 | 0.00 | 89 | 1014.6 |
| 20260903161842 | 74 | 234 | 2.6 | 5.2 | 0.00 | 0.80 | 0.00 | 90 | 1014.6 |
| 20260903161404 | 74 | 239 | 1.7 | 5.2 | 0.00 | 0.80 | 0.00 | 90 | 1014.5 |
| 20260903160903 | 73 | 222 | 0.9 | 6.1 | 0.00 | 0.80 | 0.00 | 90 | 1014.5 |
| 20260903160345 | 73 | 222 | 1.7 | 6.1 | 0.00 | 0.80 | 0.00 | 90 | 1014.6 |
| 20260903155841 | 73 | 269 | 1.7 | 5.2 | 0.00 | 0.80 | 0.00 | 90 | 1014.7 |
| 20260903155345 | 73 | 235 | 2.6 | 5.2 | 0.00 | 0.80 | 0.00 | 91 | 1014.8 |
| 20260903154833 | 73 | 237 | 0.9 | 4.3 | 0.00 | 0.80 | 0.00 | 92 | 1014.8 |
| 20260903154342 | 72 | 194 | 1.7 | 6.1 | 0.00 | 0.80 | 0.00 | 91 | 1014.9 |
| 20260903153844 | 72 | 236 | 2.6 | 6.1 | 0.00 | 0.80 | 0.00 | 91 | 1014.7 |
| 20260903153336 | 72 | 243 | 1.7 | 5.2 | 0.00 | 0.80 | 0.00 | 92 | 1014.9 |
| 20260903152839 | 72 | 230 | 2.6 | 4.3 | 0.00 | 0.80 | 0.00 | 92 | 1014.9 |
| 20260903152338 | 72 | 183 | 1.7 | 4.3 | 0.00 | 0.80 | 0.00 | 92 | 1014.9 |
| 20260903151840 | 72 | 238 | 1.7 | 3.5 | 0.00 | 0.80 | 0.00 | 92 | 1015.0 |
| 20260903151344 | 72 | 221 | 0.9 | 5.2 | 0.00 | 0.80 | 0.00 | 92 | 1015.0 |
| 20260903150848 | 72 | 231 | 1.7 | 5.2 | 0.00 | 0.80 | 0.00 | 92 | 1014.9 |
| 20260903150341 | 72 | 198 | 1.7 | 3.5 | 0.00 | 0.80 | 0.00 | 92 | 1014.8 |
| 20260903145835 | 71 | 198 | 1.7 | 5.2 | 0.00 | 0.80 | 0.00 | 92 | 1014.9 |
| 20260903145337 | 71 | 228 | 2.6 | 6.1 | 0.00 | 0.80 | 0.00 | 92 | 1014.9 |
| 20260903144840 | 72 | 170 | 2.6 | 7.0 | 0.00 | 0.80 | 0.00 | 92 | 1014.9 |
| 20260903144338 | 72 | 222 | 0.9 | 7.0 | 0.00 | 0.80 | 0.00 | 92 | 1014.9 |
| 20260903143905 | 72 | 233 | 0.9 | 5.2 | 0.00 | 0.80 | 0.00 | 92 | 1014.9 |
| 20260903143338 | 72 | 222 | 2.6 | 4.3 | 0.00 | 0.80 | 0.00 | 92 | 1014.8 |
| 20260903142906 | 72 | 220 | 0.9 | 6.1 | 0.00 | 0.80 | 0.00 | 92 | 1014.9 |
| 20260903142356 | 71 | 227 | 2.6 | 7.0 | 0.00 | 0.80 | 0.00 | 92 | 1014.9 |
| 20260903141836 | 71 | 223 | 2.6 | 7.0 | 0.00 | 0.80 | 0.00 | 93 | 1014.9 |
| 20260903141334 | 71 | 233 | 1.7 | 4.3 | 0.00 | 0.80 | 0.00 | 93 | 1014.9 |
| 20260903140836 | 71 | 213 | 2.6 | 6.1 | 0.00 | 0.80 | 0.00 | 93 | 1014.8 |
| 20260903140351 | 71 | 213 | 1.7 | 7.8 | 0.00 | 0.80 | 0.00 | 93 | 1014.8 |
| 20260903135853 | 71 | 236 | 3.5 | 7.0 | 0.00 | 0.80 | 0.00 | 94 | 1014.7 |
| 20260903135332 | 71 | 242 | 3.5 | 7.0 | 0.00 | 0.80 | 0.00 | 94 | 1014.8 |
| 20260903134855 | 70 | 168 | 0.9 | 7.0 | 0.00 | 0.80 | 0.00 | 95 | 1014.8 |
| 20260903134334 | 70 | 201 | 3.5 | 7.0 | 0.00 | 0.80 | 0.00 | 95 | 1014.9 |
| 20260903133832 | 70 | 156 | 1.7 | 6.1 | 0.00 | 0.80 | 0.00 | 96 | 1014.9 |
| 20260903133332 | 70 | 212 | 2.6 | 6.1 | 0.00 | 0.80 | 0.00 | 96 | 1014.9 |
| 20260903132832 | 70 | 225 | 1.7 | 7.0 | 0.00 | 0.80 | 0.00 | 96 | 1014.9 |
| 20260903132353 | 70 | 246 | 1.7 | 4.3 | 0.00 | 0.80 | 0.00 | 97 | 1015.0 |
| 20260903131842 | 70 | 207 | 1.7 | 4.3 | 0.00 | 0.80 | 0.00 | 97 | 1015.1 |
| 20260903131340 | 70 | 236 | 1.7 | 4.3 | 0.00 | 0.80 | 0.00 | 97 | 1015.3 |
| 20260903130855 | 70 | 235 | 0.9 | 4.3 | 0.00 | 0.80 | 0.00 | 97 | 1015.3 |
| 20260903130420 | 70 | 211 | 0.9 | 2.6 | 0.00 | 0.80 | 0.00 | 97 | 1015.3 |
| 20260903075831 | 67 | 92 | 2.6 | 4.3 | 0.00 | 0.99 | 0.00 | 96 | 1012.9 |
| 20260903075352 | 67 | 266 | 1.7 | 6.1 | 0.00 | 0.99 | 0.00 | 96 | 1012.9 |
| 20260903074842 | 67 | 227 | 2.6 | 6.1 | 0.00 | 0.99 | 0.00 | 96 | 1013.1 |
| 20260903074342 | 67 | 138 | 0.9 | 5.2 | 0.00 | 0.99 | 0.00 | 96 | 1012.9 |
| 20260903073839 | 67 | 259 | 1.7 | 5.2 | 0.00 | 0.99 | 0.00 | 96 | 1013.0 |
| 20260903073337 | 67 | 218 | 0.0 | 2.6 | 0.00 | 0.99 | 0.00 | 96 | 1013.1 |
| 20260903072842 | 67 | 186 | 0.9 | 5.2 | 0.00 | 0.99 | 0.00 | 96 | 1013.1 |
| 20260903072334 | 67 | 231 | 1.7 | 5.2 | 0.00 | 0.99 | 0.00 | 96 | 1013.2 |
| 20260903071834 | 67 | 206 | 0.9 | 4.3 | 0.00 | 0.99 | 0.00 | 96 | 1013.2 |
| 20260903071333 | 67 | 226 | 1.7 | 4.3 | 0.00 | 0.99 | 0.00 | 96 | 1013.2 |
| 20260903070840 | 67 | 225 | 0.9 | 2.6 | 0.00 | 0.99 | 0.00 | 96 | 1013.1 |
| 20260903070342 | 67 | 270 | 0.9 | 3.5 | 0.00 | 0.99 | 0.00 | 96 | 1013.0 |
| 20260903065849 | 67 | 263 | 0.9 | 4.3 | 0.00 | 0.99 | 0.00 | 95 | 1013.0 |
| 20260903065334 | 67 | 249 | 2.6 | 4.3 | 0.00 | 0.99 | 0.00 | 96 | 1013.4 |
| 20260903064830 | 67 | 243 | 0.9 | 2.6 | 0.00 | 0.99 | 0.00 | 96 | 1013.6 |
| 20260903064341 | 67 | 243 | 0.9 | 3.5 | 0.00 | 0.99 | 0.00 | 96 | 1013.7 |
| 20260903063847 | 67 | 238 | 1.7 | 3.5 | 0.00 | 0.99 | 0.00 | 96 | 1014.0 |
| 20260903063348 | 67 | 217 | 1.7 | 3.5 | 0.00 | 0.99 | 0.00 | 96 | 1013.8 |
| 20260903062905 | 67 | 159 | 0.9 | 4.3 | 0.00 | 0.99 | 0.00 | 96 | 1013.9 |
| 20260903062348 | 67 | 247 | 0.9 | 4.3 | 0.00 | 0.99 | 0.00 | 96 | 1013.8 |
| 20260903061848 | 67 | 205 | 0.9 | 7.0 | 0.00 | 0.99 | 0.00 | 96 | 1013.8 |
| 20260903061349 | 67 | 249 | 2.6 | 8.7 | 0.00 | 0.99 | 0.00 | 96 | 1014.0 |
| 20260903060833 | 67 | 211 | 2.6 | 8.7 | 0.00 | 0.99 | 0.00 | 96 | 1014.1 |
| 20260903060332 | 67 | 234 | 1.7 | 7.0 | 0.00 | 0.99 | 0.00 | 96 | 1014.0 |
| 20260903055901 | 67 | 246 | 3.5 | 7.0 | 0.00 | 0.99 | 0.00 | 96 | 1013.9 |
| 20260903054847 | 67 | 272 | 1.7 | 4.3 | 0.00 | 0.99 | 0.00 | 95 | 1013.8 |
| 20260903054352 | 67 | 207 | 2.6 | 6.1 | 0.00 | 0.99 | 0.00 | 95 | 1013.7 |
| 20260903053856 | 67 | 239 | 1.7 | 6.1 | 0.00 | 0.99 | 0.00 | 95 | 1013.5 |
| 20260903053336 | 67 | 216 | 0.9 | 7.0 | 0.00 | 0.99 | 0.00 | 95 | 1013.7 |
| 20260903052854 | 67 | 215 | 2.6 | 7.0 | 0.00 | 0.99 | 0.00 | 95 | 1014.0 |
| 20260903052338 | 67 | 240 | 2.6 | 10.4 | 0.00 | 0.99 | 0.00 | 95 | 1014.4 |
| 20260903051844 | 67 | 217 | 3.5 | 7.8 | 0.00 | 0.99 | 0.00 | 95 | 1014.1 |
| 20260903051331 | 67 | 246 | 1.7 | 7.8 | 0.00 | 0.99 | 0.00 | 95 | 1014.2 |
| 20260903050834 | 67 | 247 | 1.7 | 4.3 | 0.00 | 0.99 | 0.00 | 95 | 1014.1 |
| 20260903050358 | 67 | 235 | 1.7 | 3.5 | 0.00 | 0.99 | 0.00 | 95 | 1013.8 |
| 20260903045843 | 67 | 230 | 1.7 | 2.6 | 0.00 | 0.99 | 0.00 | 95 | 1014.0 |
| 20260903045409 | 67 | 182 | 0.9 | 3.5 | 0.00 | 0.99 | 0.00 | 95 | 1014.1 |
| 20260903044847 | 67 | 245 | 1.7 | 3.5 | 0.01 | 0.99 | 0.00 | 95 | 1014.2 |
| 20260903044332 | 67 | 212 | 1.7 | 3.5 | 0.01 | 0.99 | 0.00 | 95 | 1014.2 |
| 20260903043912 | 67 | 258 | 0.9 | 3.5 | 0.02 | 0.99 | 0.00 | 95 | 1014.2 |
| 20260903043338 | 67 | 199 | 0.9 | 3.5 | 0.02 | 0.99 | 0.00 | 95 | 1013.8 |
| 20260903042858 | 67 | 253 | 1.7 | 2.6 | 0.02 | 0.99 | 0.00 | 95 | 1013.7 |
| 20260903042340 | 67 | 253 | 0.9 | 4.3 | 0.02 | 0.99 | 0.00 | 95 | 1013.7 |
| 20260903041841 | 67 | 248 | 1.7 | 5.2 | 0.03 | 0.99 | 0.00 | 95 | 1014.2 |
| 20260903041413 | 67 | 244 | 1.7 | 4.3 | 0.03 | 0.99 | 0.00 | 95 | 1014.2 |
| 20260903040843 | 67 | 232 | 1.7 | 4.3 | 0.03 | 0.99 | 0.00 | 95 | 1014.0 |
| 20260903040337 | 67 | 157 | 0.9 | 3.5 | 0.03 | 0.99 | 0.00 | 95 | 1013.6 |
| 20260903035843 | 67 | 136 | 0.9 | 4.3 | 0.03 | 0.99 | 0.99 | 95 | 1013.6 |
| 20260903035343 | 67 | 198 | 0.9 | 1.7 | 0.11 | 0.98 | 0.98 | 95 | 1013.6 |
| 20260903034845 | 67 | 107 | 0.0 | 1.7 | 0.11 | 0.98 | 0.98 | 95 | 1013.1 |
| 20260903034339 | 67 | 188 | 0.9 | 1.7 | 0.11 | 0.98 | 0.98 | 95 | 1013.2 |
| 20260903033837 | 67 | 188 | 0.0 | 1.7 | 0.11 | 0.97 | 0.97 | 95 | 1013.4 |
| 20260903033346 | 67 | 188 | 0.9 | 2.6 | 0.11 | 0.97 | 0.97 | 95 | 1013.4 |
| 20260903032849 | 67 | 188 | 0.9 | 2.6 | 0.11 | 0.97 | 0.97 | 95 | 1013.6 |
| 20260903032331 | 67 | 240 | 0.0 | 1.7 | 0.11 | 0.97 | 0.97 | 95 | 1014.0 |
| 20260903031857 | 67 | 240 | 0.9 | 1.7 | 0.10 | 0.96 | 0.96 | 94 | 1014.5 |
| 20260903031333 | 67 | 240 | 0.9 | 1.7 | 0.10 | 0.96 | 0.96 | 94 | 1014.4 |
| 20260903030831 | 67 | 240 | 0.9 | 1.7 | 0.10 | 0.96 | 0.96 | 94 | 1014.2 |
| 20260903030351 | 67 | 240 | 0.9 | 2.6 | 0.11 | 0.96 | 0.96 | 94 | 1014.2 |
| 20260903025841 | 67 | 240 | 0.0 | 4.3 | 0.11 | 0.96 | 0.96 | 94 | 1014.3 |
| 20260903025400 | 67 | 252 | 1.7 | 4.3 | 0.03 | 0.87 | 0.87 | 94 | 1014.8 |
| 20260903024841 | 68 | 230 | 1.7 | 2.6 | 0.04 | 0.87 | 0.87 | 94 | 1014.5 |
| 20260903024332 | 68 | 230 | 0.9 | 2.6 | 0.05 | 0.87 | 0.87 | 94 | 1014.6 |
| 20260903023833 | 68 | 230 | 0.9 | 1.7 | 0.07 | 0.86 | 0.86 | 94 | 1014.5 |
| 20260903023340 | 68 | 230 | 0.9 | 1.7 | 0.13 | 0.86 | 0.86 | 94 | 1014.5 |
| 20260903022839 | 68 | 230 | 0.9 | 1.7 | 0.13 | 0.86 | 0.86 | 94 | 1014.8 |
| 20260903022406 | 68 | 230 | 0.9 | 1.7 | 0.13 | 0.86 | 0.86 | 94 | 1014.9 |
| 20260903021848 | 68 | 230 | 0.0 | 1.7 | 0.13 | 0.86 | 0.86 | 94 | 1014.8 |
| 20260903021345 | 68 | 230 | 0.9 | 3.5 | 0.13 | 0.86 | 0.86 | 94 | 1014.8 |
| 20260903020843 | 68 | 230 | 0.0 | 3.5 | 0.13 | 0.86 | 0.86 | 94 | 1014.7 |
| 20260903020334 | 68 | 244 | 1.7 | 3.5 | 0.12 | 0.85 | 0.85 | 94 | 1014.7 |